Location: Heidgraben
(53.7081°N, 9.6576°E)
Time: 10:34:44
(UTC+00:00)

Cosmos 371 Rocket - Pass Details

Date: 05 July 2020
Orbit: 684 x 699 km, 74.0° (Epoch: 05 August)

Event Time Altitude Azimuth Distance (km) Brightness Sun altitude
Rises 22:00:17 0° 335° (NNW) 3,090 8.8 -11.4°
Reaches altitude 10° 22:02:42 10° 341° (NNW) 2,167 7.4 -11.5°
Maximum altitude 22:07:25 47° 56° (NE) 925 4.1 -11.7°
Enters shadow 22:11:46 12° 129° (SE) 2,028 5.2 -11.9°
